owner,sensor,date,latitude,longitude,vertical_datum,wind_speed,wind_to_direction,wind_speed_of_gust,qcFlag 
CenGOOS,ioos:station:wmo:42067:1,2017-03-01T20:40Z,30.0430,-88.6490,5.0,4.2,160.5,4.9,'1111122,1111122,1111122' 
CenGOOS,ioos:station:wmo:42067:1,2017-03-02T20:40Z,30.0430,-88.6490,5.0,8.6,32.6,10.3,'1111122,1111122,1111122' 
CenGOOS,ioos:station:wmo:42067:1,2017-03-03T14:40Z,30.0430,-88.6490,5.0,9.4,67.6,10.9,'1111122,1111122,1111122' 
CenGOOS,ioos:station:wmo:42067:1,2017-03-03T20:40Z,30.0430,-88.6490,5.0,6.2,77.7,8.1,'1111122,1111122,1111122' 
CenGOOS,ioos:station:wmo:42067:1,2017-03-03T23:40Z,30.0430,-88.6490,5.0,7.8,53.8,9.8,'1111122,1111122,1111122' 
CenGOOS,ioos:station:wmo:42067:1,2017-03-04T14:40Z,30.0430,-88.6490,5.0,8.8,90.9,11.0,'1111122,1111122,1111122' 
CenGOOS,ioos:station:wmo:42067:1,2017-03-04T20:40Z,30.0430,-88.6490,5.0,7.6,93.4,10.9,'1111122,1111122,1111122' 
CenGOOS,ioos:station:wmo:42067:1,2017-03-04T23:40Z,30.0430,-88.6490,5.0,6.4,102.3,8.3,'1111122,1111122,1111122' 
CenGOOS,ioos:station:wmo:42067:1,2017-03-05T20:40Z,30.0430,-88.6490,5.0,7.7,118.4,8.9,'1111122,1111122,1111122' 
CenGOOS,ioos:station:wmo:42067:1,2017-03-06T14:40Z,30.0430,-88.6490,5.0,8.4,126.2,10.1,'1111122,1111122,1111122' 
CenGOOS,ioos:station:wmo:42067:1,2017-03-06T17:40Z,30.0430,-88.6490,5.0,9.3,125.3,11.2,'1111122,1111122,1111122' 
CenGOOS,ioos:station:wmo:42067:1,2017-03-06T20:40Z,30.0430,-88.6490,5.0,8.8,126.4,10.2,'1111122,1111122,1111122' 
CenGOOS,ioos:station:wmo:42067:1,2017-03-06T23:40Z,30.0430,-88.6490,5.0,8.2,119.8,8.7,'1111122,1111122,1111122' 
CenGOOS,ioos:station:wmo:42067:1,2017-03-07T17:40Z,30.0430,-88.6490,5.0,3.7,143.3,4.5,'1111122,1111122,1111122' 
CenGOOS,ioos:station:wmo:42067:1,2017-03-07T20:40Z,30.0430,-88.6490,5.0,5.0,151.4,6.3,'1111122,1111122,1111122' 
CenGOOS,ioos:station:wmo:42067:1,2017-03-08T02:40Z,30.0430,-88.6490,5.0,7.5,322.5,10.3,'1111122,1111122,1111122' 
CenGOOS,ioos:station:wmo:42067:1,2017-03-08T20:40Z,30.0430,-88.6490,5.0,4.8,82.0,5.2,'1111122,1111122,1111122' 
CenGOOS,ioos:station:wmo:42067:1,2017-03-09T14:40Z,30.0430,-88.6490,5.0,3.6,83.9,4.2,'1111122,1111122,1111122' 
CenGOOS,ioos:station:wmo:42067:1,2017-03-09T20:40Z,30.0430,-88.6490,5.0,2.8,145.4,3.4,'1111122,1111122,1111122' 
CenGOOS,ioos:station:wmo:42067:1,2017-03-10T02:40Z,30.0430,-88.6490,5.0,4.0,173.5,4.0,'1111122,1111122,1111122' 
CenGOOS,ioos:station:wmo:42067:1,2017-03-10T20:40Z,30.0430,-88.6490,5.0,3.3,306.6,3.9,'1111122,1111122,1111122' 
CenGOOS,ioos:station:wmo:42067:1,2017-03-10T23:40Z,30.0430,-88.6490,5.0,2.5,235.0,3.0,'1111122,1111122,1111122' 
CenGOOS,ioos:station:wmo:42067:1,2017-03-11T14:40Z,30.0430,-88.6490,5.0,8.8,89.5,10.4,'1111122,1111122,1111122' 
CenGOOS,ioos:station:wmo:42067:1,2017-03-11T17:40Z,30.0430,-88.6490,5.0,8.4,111.6,9.8,'1111122,1111122,1111122' 
CenGOOS,ioos:station:wmo:42067:1,2017-03-11T20:40Z,30.0430,-88.6490,5.0,6.9,122.4,7.7,'1111122,1111122,1111122' 
CenGOOS,ioos:station:wmo:42067:1,2017-03-12T08:40Z,30.0430,-88.6490,5.0,10.1,51.2,11.9,'1111122,1111122,1111122' 
CenGOOS,ioos:station:wmo:42067:1,2017-03-12T11:40Z,30.0430,-88.6490,5.0,10.3,49.0,12.4,'1111122,1111122,1111122' 
CenGOOS,ioos:station:wmo:42067:1,2017-03-12T14:40Z,30.0430,-88.6490,5.0,11.5,53.0,13.8,'1111122,1111122,1111122' 
CenGOOS,ioos:station:wmo:42067:1,2017-03-12T17:40Z,30.0430,-88.6490,5.0,9.4,52.3,10.6,'1111122,1111122,1111122' 
CenGOOS,ioos:station:wmo:42067:1,2017-03-12T20:40Z,30.0430,-88.6490,5.0,5.7,55.9,7.0,'1111122,1111122,1111122' 
CenGOOS,ioos:station:wmo:42067:1,2017-03-12T23:40Z,30.0430,-88.6490,5.0,7.1,47.0,7.7,'1111122,1111122,1111122' 
CenGOOS,ioos:station:wmo:42067:1,2017-03-13T08:40Z,30.0430,-88.6490,5.0,10.2,83.5,11.0,'1111122,1111122,1111122' 
CenGOOS,ioos:station:wmo:42067:1,2017-03-13T14:40Z,30.0430,-88.6490,5.0,6.5,71.8,7.1,'1111122,1111122,1111122' 
CenGOOS,ioos:station:wmo:42067:1,2017-03-13T17:40Z,30.0430,-88.6490,5.0,7.5,56.0,7.8,'1111122,1111122,1111122' 
CenGOOS,ioos:station:wmo:42067:1,2017-03-13T23:40Z,30.0430,-88.6490,5.0,10.5,359.8,12.4,'1111122,1111122,1111122' 
CenGOOS,ioos:station:wmo:42067:1,2017-03-14T02:40Z,30.0430,-88.6490,5.0,11.6,352.4,13.5,'1111122,1111122,1111122' 
CenGOOS,ioos:station:wmo:42067:1,2017-03-14T05:40Z,30.0430,-88.6490,5.0,11.7,0.2,16.0,'1111122,1111122,1111122' 
CenGOOS,ioos:station:wmo:42067:1,2017-03-14T11:40Z,30.0430,-88.6490,5.0,8.6,359.5,10.6,'1111122,1111122,1111122' 
CenGOOS,ioos:station:wmo:42067:1,2017-03-14T17:40Z,30.0430,-88.6490,5.0,7.6,330.7,9.6,'1111122,1111122,1111122' 
CenGOOS,ioos:station:wmo:42067:1,2017-03-14T20:40Z,30.0430,-88.6490,5.0,5.7,354.3,8.2,'1111122,1111122,1111122' 
CenGOOS,ioos:station:wmo:42067:1,2017-03-15T05:40Z,30.0430,-88.6490,5.0,7.4,35.4,9.6,'1111122,1111122,1111122' 
CenGOOS,ioos:station:wmo:42067:1,2017-03-15T08:40Z,30.0430,-88.6490,5.0,9.7,32.7,11.9,'1111122,1111122,1111122' 
CenGOOS,ioos:station:wmo:42067:1,2017-03-15T11:40Z,30.0430,-88.6490,5.0,9.6,46.0,12.1,'1111122,1111122,1111122' 
CenGOOS,ioos:station:wmo:42067:1,2017-03-15T14:40Z,30.0430,-88.6490,5.0,8.3,40.8,10.7,'1111122,1111122,1111122' 
CenGOOS,ioos:station:wmo:42067:1,2017-03-15T17:40Z,30.0430,-88.6490,5.0,6.2,20.2,8.1,'1111122,1111122,1111122' 
CenGOOS,ioos:station:wmo:42067:1,2017-03-15T20:40Z,30.0430,-88.6490,5.0,1.0,308.1,3.0,'1111122,1111122,1111122' 
CenGOOS,ioos:station:wmo:42067:1,2017-03-15T23:40Z,30.0430,-88.6490,5.0,0.4,303.2,1.5,'1111122,1111122,1111122' 
CenGOOS,ioos:station:wmo:42067:1,2017-03-16T02:40Z,30.0430,-88.6490,5.0,5.1,27.8,7.1,'1111122,1111122,1111122' 
CenGOOS,ioos:station:wmo:42067:1,2017-03-16T05:40Z,30.0430,-88.6490,5.0,4.0,49.2,5.5,'1111122,1111122,1111122' 
CenGOOS,ioos:station:wmo:42067:1,2017-03-16T08:40Z,30.0430,-88.6490,5.0,4.7,61.6,6.3,'1111122,1111122,1111122' 
CenGOOS,ioos:station:wmo:42067:1,2017-03-16T11:40Z,30.0430,-88.6490,5.0,4.8,80.0,6.2,'1111122,1111122,1111122' 
CenGOOS,ioos:station:wmo:42067:1,2017-03-16T20:40Z,30.0430,-88.6490,5.0,0.2,136.6,1.0,'1111122,1111122,1111122' 
CenGOOS,ioos:station:wmo:42067:1,2017-03-16T23:40Z,30.0430,-88.6490,5.0,3.5,144.8,4.6,'1111122,1111122,1111122' 
CenGOOS,ioos:station:wmo:42067:1,2017-03-17T05:40Z,30.0430,-88.6490,5.0,2.7,147.2,4.1,'1111122,1111122,1111122' 
CenGOOS,ioos:station:wmo:42067:1,2017-03-17T08:40Z,30.0430,-88.6490,5.0,3.1,150.1,3.4,'1111122,1111122,1111122' 
CenGOOS,ioos:station:wmo:42067:1,2017-03-17T11:40Z,30.0430,-88.6490,5.0,4.2,143.5,4.3,'1111122,1111122,1111122' 
CenGOOS,ioos:station:wmo:42067:1,2017-03-17T14:40Z,30.0430,-88.6490,5.0,5.0,135.8,6.5,'1111122,1111122,1111122' 
CenGOOS,ioos:station:wmo:42067:1,2017-03-17T17:40Z,30.0430,-88.6490,5.0,4.4,137.4,5.9,'1111122,1111122,1111122' 
CenGOOS,ioos:station:wmo:42067:1,2017-03-17T20:40Z,30.0430,-88.6490,5.0,3.7,148.6,4.4,'1111122,1111122,1111122' 
CenGOOS,ioos:station:wmo:42067:1,2017-03-17T23:40Z,30.0430,-88.6490,5.0,3.6,146.0,4.5,'1111122,1111122,1111122' 
CenGOOS,ioos:station:wmo:42067:1,2017-03-18T02:40Z,30.0430,-88.6490,5.0,4.1,156.7,4.4,'1111122,1111122,1111122' 
CenGOOS,ioos:station:wmo:42067:1,2017-03-18T14:40Z,30.0430,-88.6490,5.0,3.4,186.9,4.0,'1111122,1111122,1111122' 
CenGOOS,ioos:station:wmo:42067:1,2017-03-18T17:40Z,30.0430,-88.6490,5.0,4.3,202.6,5.9,'1111122,1111122,1111122' 
CenGOOS,ioos:station:wmo:42067:1,2017-03-18T20:40Z,30.0430,-88.6490,5.0,5.7,196.5,6.9,'1111122,1111122,1111122' 
CenGOOS,ioos:station:wmo:42067:1,2017-03-18T23:40Z,30.0430,-88.6490,5.0,6.0,199.5,7.0,'1111122,1111122,1111122' 
CenGOOS,ioos:station:wmo:42067:1,2017-03-19T02:40Z,30.0430,-88.6490,5.0,6.2,215.2,7.6,'1111122,1111122,1111122' 
CenGOOS,ioos:station:wmo:42067:1,2017-03-19T05:40Z,30.0430,-88.6490,5.0,4.1,280.0,4.6,'1111122,1111122,1111122' 
CenGOOS,ioos:station:wmo:42067:1,2017-03-19T08:40Z,30.0430,-88.6490,5.0,3.8,310.1,4.1,'1111122,1111122,1111122' 
CenGOOS,ioos:station:wmo:42067:1,2017-03-19T11:40Z,30.0430,-88.6490,5.0,1.8,40.5,2.1,'1111122,1111122,1111122' 
CenGOOS,ioos:station:wmo:42067:1,2017-03-19T14:40Z,30.0430,-88.6490,5.0,2.6,28.9,3.0,'1111122,1111122,1111122' 
CenGOOS,ioos:station:wmo:42067:1,2017-03-19T17:40Z,30.0430,-88.6490,5.0,2.3,113.7,2.8,'1111122,1111122,1111122' 
CenGOOS,ioos:station:wmo:42067:1,2017-03-19T20:40Z,30.0430,-88.6490,5.0,5.2,189.4,5.9,'1111122,1111122,1111122' 
CenGOOS,ioos:station:wmo:42067:1,2017-03-19T23:40Z,30.0430,-88.6490,5.0,4.7,212.4,5.3,'1111122,1111122,1111122' 
CenGOOS,ioos:station:wmo:42067:1,2017-03-20T02:40Z,30.0430,-88.6490,5.0,2.6,187.7,3.1,'1111122,1111122,1111122' 
CenGOOS,ioos:station:wmo:42067:1,2017-03-20T05:40Z,30.0430,-88.6490,5.0,2.0,239.8,2.3,'1111122,1111122,1111122' 
CenGOOS,ioos:station:wmo:42067:1,2017-03-20T11:40Z,30.0430,-88.6490,5.0,1.6,291.2,2.1,'1111122,1111122,1111122' 
CenGOOS,ioos:station:wmo:42067:1,2017-03-20T14:40Z,30.0430,-88.6490,5.0,1.3,273.3,1.6,'1111122,1111122,1111122' 
CenGOOS,ioos:station:wmo:42067:1,2017-03-20T17:40Z,30.0430,-88.6490,5.0,3.4,238.4,4.0,'1111122,1111122,1111122' 
CenGOOS,ioos:station:wmo:42067:1,2017-03-20T20:40Z,30.0430,-88.6490,5.0,4.4,201.2,5.1,'1111122,1111122,1111122' 
CenGOOS,ioos:station:wmo:42067:1,2017-03-20T23:40Z,30.0430,-88.6490,5.0,5.2,173.0,6.1,'1111122,1111122,1111122' 
CenGOOS,ioos:station:wmo:42067:1,2017-03-21T02:40Z,30.0430,-88.6490,5.0,6.9,189.0,8.3,'1111122,1111122,1111122' 
CenGOOS,ioos:station:wmo:42067:1,2017-03-21T05:40Z,30.0430,-88.6490,5.0,7.3,202.6,8.5,'1111122,1111122,1111122' 
CenGOOS,ioos:station:wmo:42067:1,2017-03-21T08:40Z,30.0430,-88.6490,5.0,4.5,228.6,5.0,'1111122,1111122,1111122' 
CenGOOS,ioos:station:wmo:42067:1,2017-03-21T11:40Z,30.0430,-88.6490,5.0,4.9,255.3,5.6,'1111122,1111122,1111122' 
CenGOOS,ioos:station:wmo:42067:1,2017-03-21T14:40Z,30.0430,-88.6490,5.0,4.2,263.7,5.1,'1111122,1111122,1111122' 
CenGOOS,ioos:station:wmo:42067:1,2017-03-21T17:40Z,30.0430,-88.6490,5.0,4.9,242.9,5.8,'1111122,1111122,1111122' 
CenGOOS,ioos:station:wmo:42067:1,2017-03-21T20:40Z,30.0430,-88.6490,5.0,3.4,220.9,4.3,'1111122,1111122,1111122' 
CenGOOS,ioos:station:wmo:42067:1,2017-03-21T23:40Z,30.0430,-88.6490,5.0,5.0,192.8,6.1,'1111122,1111122,1111122' 
CenGOOS,ioos:station:wmo:42067:1,2017-03-22T02:40Z,30.0430,-88.6490,5.0,6.8,204.7,8.4,'1111122,1111122,1111122' 
CenGOOS,ioos:station:wmo:42067:1,2017-03-22T05:40Z,30.0430,-88.6490,5.0,6.7,234.3,7.4,'1111122,1111122,1111122' 
CenGOOS,ioos:station:wmo:42067:1,2017-03-22T08:40Z,30.0430,-88.6490,5.0,7.0,252.0,7.8,'1111122,1111122,1111122' 
CenGOOS,ioos:station:wmo:42067:1,2017-03-22T11:40Z,30.0430,-88.6490,5.0,7.2,277.8,7.5,'1111122,1111122,1111122' 
CenGOOS,ioos:station:wmo:42067:1,2017-03-22T17:40Z,30.0430,-88.6490,5.0,5.5,293.6,6.3,'1111122,1111122,1111122' 
CenGOOS,ioos:station:wmo:42067:1,2017-03-22T20:40Z,30.0430,-88.6490,5.0,5.5,212.4,6.5,'1111122,1111122,1111122' 
CenGOOS,ioos:station:wmo:42067:1,2017-03-22T23:40Z,30.0430,-88.6490,5.0,6.3,213.7,7.2,'1111122,1111122,1111122' 
CenGOOS,ioos:station:wmo:42067:1,2017-03-23T02:40Z,30.0430,-88.6490,5.0,4.9,227.1,5.2,'1111122,1111122,1111122' 
CenGOOS,ioos:station:wmo:42067:1,2017-03-23T05:40Z,30.0430,-88.6490,5.0,3.1,274.0,3.4,'1111122,1111122,1111122' 
CenGOOS,ioos:station:wmo:42067:1,2017-03-23T08:40Z,30.0430,-88.6490,5.0,3.5,66.3,4.2,'1111122,1111122,1111122' 
CenGOOS,ioos:station:wmo:42067:1,2017-03-23T11:40Z,30.0430,-88.6490,5.0,6.8,77.4,7.9,'1111122,1111122,1111122' 
CenGOOS,ioos:station:wmo:42067:1,2017-03-23T14:40Z,30.0430,-88.6490,5.0,7.2,97.9,8.4,'1111122,1111122,1111122' 
CenGOOS,ioos:station:wmo:42067:1,2017-03-23T20:40Z,30.0430,-88.6490,5.0,8.2,102.6,9.5,'1111122,1111122,1111122' 
CenGOOS,ioos:station:wmo:42067:1,2017-03-23T23:40Z,30.0430,-88.6490,5.0,8.2,103.8,9.9,'1111122,1111122,1111122' 
CenGOOS,ioos:station:wmo:42067:1,2017-03-24T14:40Z,30.0430,-88.6490,5.0,10.1,119.0,12.3,'1111122,1111122,1111122' 
CenGOOS,ioos:station:wmo:42067:1,2017-03-24T17:40Z,30.0430,-88.6490,5.0,9.2,121.5,11.5,'1111122,1111122,1111122' 
CenGOOS,ioos:station:wmo:42067:1,2017-03-24T20:40Z,30.0430,-88.6490,5.0,7.1,119.3,8.3,'1111122,1111122,1111122' 
CenGOOS,ioos:station:wmo:42067:1,2017-03-24T23:40Z,30.0430,-88.6490,5.0,5.2,123.7,6.4,'1111122,1111122,1111122' 
CenGOOS,ioos:station:wmo:42067:1,2017-03-25T02:40Z,30.0430,-88.6490,5.0,8.5,118.2,9.9,'1111122,1111122,1111122' 
CenGOOS,ioos:station:wmo:42067:1,2017-03-25T05:40Z,30.0430,-88.6490,5.0,9.0,128.9,10.3,'1111122,1111122,1111122' 
CenGOOS,ioos:station:wmo:42067:1,2017-03-25T08:40Z,30.0430,-88.6490,5.0,7.7,138.1,8.5,'1111122,1111122,1111122' 
CenGOOS,ioos:station:wmo:42067:1,2017-03-25T11:40Z,30.0430,-88.6490,5.0,5.9,134.4,6.9,'1111122,1111122,1111122' 
CenGOOS,ioos:station:wmo:42067:1,2017-03-25T14:40Z,30.0430,-88.6490,5.0,7.5,129.2,8.6,'1111122,1111122,1111122' 
CenGOOS,ioos:station:wmo:42067:1,2017-03-25T17:40Z,30.0430,-88.6490,5.0,7.4,134.8,9.1,'1111122,1111122,1111122' 
CenGOOS,ioos:station:wmo:42067:1,2017-03-25T20:40Z,30.0430,-88.6490,5.0,8.8,152.9,11.3,'1111122,1111122,1111122' 
CenGOOS,ioos:station:wmo:42067:1,2017-03-25T23:40Z,30.0430,-88.6490,5.0,6.4,220.5,7.8,'1111122,1111122,1111122' 
CenGOOS,ioos:station:wmo:42067:1,2017-03-26T02:40Z,30.0430,-88.6490,5.0,5.2,151.9,6.2,'1111122,1111122,1111122' 
CenGOOS,ioos:station:wmo:42067:1,2017-03-26T05:40Z,30.0430,-88.6490,5.0,5.7,152.7,6.9,'1111122,1111122,1111122' 
CenGOOS,ioos:station:wmo:42067:1,2017-03-26T08:40Z,30.0430,-88.6490,5.0,5.6,147.9,6.6,'1111122,1111122,1111122' 
CenGOOS,ioos:station:wmo:42067:1,2017-03-26T11:40Z,30.0430,-88.6490,5.0,4.5,139.7,5.4,'1111122,1111122,1111122' 
CenGOOS,ioos:station:wmo:42067:1,2017-03-26T14:40Z,30.0430,-88.6490,5.0,2.8,118.1,3.4,'1111122,1111122,1111122' 
CenGOOS,ioos:station:wmo:42067:1,2017-03-26T17:40Z,30.0430,-88.6490,5.0,3.5,122.0,4.6,'1111122,1111122,1111122' 
CenGOOS,ioos:station:wmo:42067:1,2017-03-26T20:40Z,30.0430,-88.6490,5.0,5.0,131.9,5.8,'1111122,1111122,1111122' 
CenGOOS,ioos:station:wmo:42067:1,2017-03-26T23:40Z,30.0430,-88.6490,5.0,5.2,131.2,6.3,'1111122,1111122,1111122' 
CenGOOS,ioos:station:wmo:42067:1,2017-03-27T02:40Z,30.0430,-88.6490,5.0,4.7,130.7,4.7,'1111122,1111122,1111122' 
CenGOOS,ioos:station:wmo:42067:1,2017-03-27T11:40Z,30.0430,-88.6490,5.0,5.1,146.7,5.9,'1111122,1111122,1111122' 
CenGOOS,ioos:station:wmo:42067:1,2017-03-27T14:40Z,30.0430,-88.6490,5.0,5.2,123.2,6.5,'1111122,1111122,1111122' 
CenGOOS,ioos:station:wmo:42067:1,2017-03-27T17:40Z,30.0430,-88.6490,5.0,7.3,137.7,8.6,'1111122,1111122,1111122' 
CenGOOS,ioos:station:wmo:42067:1,2017-03-27T20:40Z,30.0430,-88.6490,5.0,4.5,160.0,5.9,'1111122,1111122,1111122' 
CenGOOS,ioos:station:wmo:42067:1,2017-03-27T23:40Z,30.0430,-88.6490,5.0,6.7,152.1,7.7,'1111122,1111122,1111122' 
CenGOOS,ioos:station:wmo:42067:1,2017-03-28T02:40Z,30.0430,-88.6490,5.0,6.0,152.8,6.8,'1111122,1111122,1111122' 
CenGOOS,ioos:station:wmo:42067:1,2017-03-28T05:40Z,30.0430,-88.6490,5.0,5.5,163.3,6.2,'1111122,1111122,1111122' 
CenGOOS,ioos:station:wmo:42067:1,2017-03-28T08:40Z,30.0430,-88.6490,5.0,4.0,171.3,4.8,'1111122,1111122,1111122' 
CenGOOS,ioos:station:wmo:42067:1,2017-03-28T20:40Z,30.0430,-88.6490,5.0,5.1,155.0,6.1,'1111122,1111122,1111122' 
CenGOOS,ioos:station:wmo:42067:1,2017-03-28T23:40Z,30.0430,-88.6490,5.0,5.1,152.7,6.3,'1111122,1111122,1111122' 
CenGOOS,ioos:station:wmo:42067:1,2017-03-29T02:40Z,30.0430,-88.6490,5.0,7.4,153.7,7.8,'1111122,1111122,1111122' 
CenGOOS,ioos:station:wmo:42067:1,2017-03-29T05:40Z,30.0430,-88.6490,5.0,6.1,145.0,6.3,'1111122,1111122,1111122' 
CenGOOS,ioos:station:wmo:42067:1,2017-03-29T08:40Z,30.0430,-88.6490,5.0,6.4,140.9,7.1,'1111122,1111122,1111122' 
CenGOOS,ioos:station:wmo:42067:1,2017-03-29T11:40Z,30.0430,-88.6490,5.0,7.4,143.0,8.7,'1111122,1111122,1111122' 
CenGOOS,ioos:station:wmo:42067:1,2017-03-29T14:40Z,30.0430,-88.6490,5.0,7.6,137.7,9.0,'1111122,1111122,1111122' 
CenGOOS,ioos:station:wmo:42067:1,2017-03-29T17:40Z,30.0430,-88.6490,5.0,2.5,167.0,3.1,'1111122,1111122,1111122' 
CenGOOS,ioos:station:wmo:42067:1,2017-03-29T23:40Z,30.0430,-88.6490,5.0,7.8,123.7,8.9,'1111122,1111122,1111122' 
CenGOOS,ioos:station:wmo:42067:1,2017-03-30T02:40Z,30.0430,-88.6490,5.0,8.5,129.6,10.1,'1111122,1111122,1111122' 
CenGOOS,ioos:station:wmo:42067:1,2017-03-30T05:40Z,30.0430,-88.6490,5.0,9.4,146.6,11.4,'1111122,1111122,1111122' 
CenGOOS,ioos:station:wmo:42067:1,2017-03-30T08:40Z,30.0430,-88.6490,5.0,5.9,153.0,7.1,'1111122,1111122,1111122' 
CenGOOS,ioos:station:wmo:42067:1,2017-03-30T11:40Z,30.0430,-88.6490,5.0,5.6,152.8,6.7,'1111122,1111122,1111122' 
CenGOOS,ioos:station:wmo:42067:1,2017-03-30T14:40Z,30.0430,-88.6490,5.0,6.7,125.5,7.9,'1111122,1111122,1111122' 
CenGOOS,ioos:station:wmo:42067:1,2017-03-30T17:40Z,30.0430,-88.6490,5.0,10.8,290.0,14.6,'1111122,1111122,1111122' 
CenGOOS,ioos:station:wmo:42067:1,2017-03-30T23:40Z,30.0430,-88.6490,5.0,9.4,135.7,10.0,'1111122,1111122,1111122' 
CenGOOS,ioos:station:wmo:42067:1,2017-03-31T02:40Z,30.0430,-88.6490,5.0,7.7,175.5,9.2,'1111122,1111122,1111122' 
CenGOOS,ioos:station:wmo:42067:1,2017-03-31T05:40Z,30.0430,-88.6490,5.0,6.3,229.2,8.0,'1111122,1111122,1111122' 
CenGOOS,ioos:station:wmo:42067:1,2017-03-31T11:40Z,30.0430,-88.6490,5.0,6.9,335.6,8.3,'1111122,1111122,1111122' 
CenGOOS,ioos:station:wmo:42067:1,2017-03-31T14:40Z,30.0430,-88.6490,5.0,3.0,26.1,3.8,'1111122,1111122,1111122' 
CenGOOS,ioos:station:wmo:42067:1,2017-03-31T17:40Z,30.0430,-88.6490,5.0,2.2,334.9,3.5,'1111122,1111122,1111122' 
CenGOOS,ioos:station:wmo:42067:1,2017-03-31T20:40Z,30.0430,-88.6490,5.0,3.1,231.9,3.8,'1111122,1111122,1111122' 
CenGOOS,ioos:station:wmo:42067:1,2017-03-31T23:40Z,30.0430,-88.6490,5.0,5.4,199.8,6.5,'1111122,1111122,1111122' 
 
DISCLAIMER: The Gulf of Mexico Coastal and Ocean Observing (GCOOS) Data Portal aggregates data from the regional data providers for the convenience of all data users. Data published on this website should not be used for navigation or certain other uses as we cannot guarantee data accuracy or availability. The data and delivery services are provided 'as is' without warranty of any kind. Data Source: Gulf of Mexico Coastal Ocean Observing System Data Portal (http://data.gcoos.org/) 
